Horseshoe Bay, TX

9:18 AM CDT on March 25, 2017 (GMT -0500)
Horseshoe Bay

Weather History for KDZB - January, 2014

Change the Weather History Date:

Thursday, January 23, 2014

  Actual Average (KBMQ) Record (KBMQ)
Temperature  
Mean Temperature 36 °F -  
Max Temperature 50 °F 58 °F 82 °F (2009)
Min Temperature 23 °F 37 °F 23 °F (2014)
Degree Days  
Heating Degree Days 28    
Moisture  
Dew Point 27 °F    
Average Humidity 67    
Maximum Humidity 87    
Minimum Humidity 50    
Precipitation  
Precipitation 0.00 in - - ()
Sea Level Pressure  
Sea Level Pressure 30.38 in    
Wind  
Wind Speed 6 mph (NNE)    
Max Wind Speed 15 mph    
Max Gust Speed 25 mph    
Visibility 9 miles    
Events Rain , Snow    
Averages and records for this station are not official NWS values.
T = Trace of Precipitation, MM = Missing Value Source: NWS Daily Summary

Daily Weather History Graph

Daily Weather History Graph

Search for Another Location

Airport or City:

Trip Planner

Search our weather history database for the weather conditions in past years. The results will help you decide how hot, cold, wet, or windy it might be!

Date:

Astronomy

Jan. 23, 2014 Rise Set
Actual Time 6:28 AM MST 5:01 PM MST
Civil Twilight 6:03 AM MST 5:27 PM MST
Nautical Twilight 5:34 AM MST 5:56 PM MST
Astronomical Twilight 5:05 AM MST 6:25 PM MST
Moon No Moon Rise 10:36 AM MST (1/23)
Length of Visible Light 11h 24m
Length of Day
10h 33m
Waning Gibbous, 54% of the Moon is Illuminated
Jan 23
Waning Gibbous
Jan 23
Last Quarter
Jan 30
New
Feb 6
First Quarter
Feb 14
Full

Hourly Weather History & Observations

Time (MST) Temp. Windchill Dew Point Humidity Pressure Visibility Wind Dir Wind Speed Gust Speed Precip Events Conditions
12:15 AM 50.5 °F - 34.2 °F 53% 30.03 in 10.0 mi SSE 4.6 mph - N/A   Clear
12:35 AM 50.0 °F - 34.7 °F 56% 30.03 in 10.0 mi SE 3.5 mph - N/A   Clear
12:55 AM 50.2 °F - 35.4 °F 57% 30.03 in 10.0 mi Calm Calm - N/A   Clear
1:15 AM 48.7 °F - 35.6 °F 60% 30.04 in 10.0 mi Calm Calm - N/A   Clear
1:35 AM 47.7 °F - 34.5 °F 60% 30.05 in 10.0 mi Calm Calm - N/A   Clear
1:55 AM 47.3 °F - 35.1 °F 62% 30.05 in 10.0 mi Calm Calm - N/A   Clear
2:15 AM 47.7 °F - 36.7 °F 66% 30.06 in 10.0 mi Calm Calm - N/A   Clear
2:35 AM 47.8 °F - 37.6 °F 68% 30.06 in 10.0 mi Calm Calm - N/A   Clear
2:55 AM 47.3 °F - 37.9 °F 70% 30.07 in 10.0 mi Calm Calm - N/A   Clear
3:15 AM 47.3 °F - 38.5 °F 71% 30.09 in 10.0 mi Calm Calm - N/A   Clear
3:35 AM 48.0 °F - 39.2 °F 72% 30.10 in 10.0 mi Calm Calm - N/A   Scattered Clouds
3:55 AM 48.4 °F - 39.7 °F 72% 30.10 in 10.0 mi Calm Calm - N/A   Mostly Cloudy
4:15 AM 50.2 °F - 41.9 °F 73% 30.11 in 10.0 mi NE 3.5 mph - N/A   Overcast
4:35 AM 50.0 °F - 41.0 °F 71% 30.13 in 10.0 mi NNE 4.6 mph - N/A   Overcast
4:55 AM 50.0 °F - 39.0 °F 66% 30.14 in 10.0 mi NE 3.5 mph - N/A   Overcast
5:15 AM 49.6 °F - 38.1 °F 65% 30.13 in 10.0 mi NE 9.2 mph - N/A   Overcast
5:35 AM 49.1 °F - 37.0 °F 63% 30.16 in 10.0 mi NNE 5.8 mph - N/A   Overcast
5:55 AM 48.2 °F - 34.9 °F 60% 30.17 in 10.0 mi NE 8.1 mph - N/A   Overcast
6:15 AM 47.1 °F - 32.2 °F 56% 30.19 in 10.0 mi NE 9.2 mph - N/A   Overcast
6:35 AM 46.6 °F - 30.9 °F 54% 30.21 in 10.0 mi NE 5.8 mph - N/A   Overcast
6:55 AM 44.8 °F 41.0 °F 31.3 °F 59% 30.22 in 10.0 mi NE 6.9 mph - N/A Rain Light Rain
7:15 AM 45.3 °F 40.6 °F 28.8 °F 52% 30.23 in 10.0 mi NNE 9.2 mph - N/A   Overcast
7:35 AM 44.6 °F 40.7 °F 27.3 °F 51% 30.25 in 10.0 mi NNE 6.9 mph - N/A   Overcast
7:55 AM 44.1 °F 40.8 °F 26.4 °F 50% 30.27 in 10.0 mi NNE 5.8 mph - N/A   Overcast
8:15 AM 43.7 °F 39.1 °F 26.2 °F 50% 30.28 in 10.0 mi NNE 8.1 mph - N/A   Overcast
8:35 AM 42.8 °F 37.0 °F 26.4 °F 52% 30.30 in 10.0 mi NNE 10.4 mph 16.1 mph N/A   Overcast
8:55 AM 42.1 °F 37.1 °F 27.1 °F 55% 30.33 in 10.0 mi NNE 8.1 mph 17.3 mph N/A   Overcast
9:15 AM 41.9 °F 36.3 °F 26.8 °F 55% 30.35 in 10.0 mi North 9.2 mph - N/A   Overcast
9:35 AM 42.3 °F 36.8 °F 26.1 °F 53% 30.37 in 10.0 mi NNE 9.2 mph - N/A   Overcast
9:55 AM 41.9 °F 35.9 °F 24.3 °F 50% 30.37 in 10.0 mi NNE 10.4 mph 16.1 mph N/A   Overcast
10:15 AM 41.0 °F 35.2 °F 23.4 °F 50% 30.38 in 10.0 mi NNE 9.2 mph 18.4 mph N/A   Overcast
10:35 AM 40.5 °F 33.2 °F 24.3 °F 52% 30.39 in 10.0 mi NNE 12.7 mph 19.6 mph N/A   Overcast
10:55 AM 40.6 °F 35.4 °F 23.5 °F 51% 30.40 in 10.0 mi NNE 8.1 mph 17.3 mph N/A   Overcast
11:15 AM 40.1 °F 33.6 °F 22.8 °F 50% 30.40 in 10.0 mi NNE 10.4 mph 20.7 mph N/A   Overcast
11:35 AM 40.1 °F 33.6 °F 23.4 °F 51% 30.40 in 10.0 mi NE 10.4 mph 19.6 mph N/A   Overcast
11:55 AM 39.2 °F 33.0 °F 25.3 °F 58% 30.40 in 10.0 mi NE 9.2 mph 19.6 mph N/A   Overcast
12:15 PM 38.3 °F 30.5 °F 25.7 °F 61% 30.40 in 10.0 mi NNE 12.7 mph 19.6 mph N/A   Overcast
12:35 PM 38.3 °F 32.5 °F 25.3 °F 60% 30.40 in 10.0 mi NNE 8.1 mph - N/A   Overcast
12:55 PM 38.5 °F 32.1 °F 23.9 °F 56% 30.41 in 10.0 mi NNE 9.2 mph 19.6 mph N/A   Overcast
1:15 PM 38.3 °F 30.5 °F 23.4 °F 55% 30.41 in 10.0 mi NE 12.7 mph 18.4 mph N/A   Overcast
1:35 PM 37.8 °F 30.7 °F 23.0 °F 55% 30.42 in 10.0 mi North 10.4 mph 19.6 mph N/A   Overcast
1:55 PM 36.9 °F 28.7 °F 24.1 °F 60% 30.43 in 10.0 mi NNE 12.7 mph 20.7 mph N/A Rain Light Rain
2:15 PM 35.8 °F 27.3 °F 26.1 °F 68% 30.45 in 10.0 mi North 12.7 mph 23.0 mph N/A   Light Drizzle
2:35 PM 34.2 °F 24.4 °F 26.2 °F 73% 30.46 in 10.0 mi NNE 15.0 mph 21.9 mph N/A   Overcast
2:55 PM 33.4 °F 24.3 °F 25.9 °F 74% 30.48 in 10.0 mi NNE 12.7 mph 20.7 mph N/A Rain Light Rain
3:15 PM 32.5 °F 23.2 °F 27.0 °F 80% 30.49 in 5.0 mi North 12.7 mph 23.0 mph N/A   Overcast
3:35 PM 31.8 °F 23.9 °F 26.4 °F 80% 30.50 in 7.0 mi NNE 9.2 mph 19.6 mph N/A   Overcast
3:55 PM 31.5 °F 22.3 °F 26.8 °F 83% 30.52 in 4.0 mi North 11.5 mph 17.3 mph N/A Snow Light Snow
4:15 PM 30.7 °F 22.6 °F 26.4 °F 84% 30.54 in 4.0 mi NNE 9.2 mph 16.1 mph N/A Snow Light Snow
4:35 PM 30.2 °F 20.2 °F 26.2 °F 85% 30.54 in 5.0 mi NNE 12.7 mph 19.6 mph N/A   Overcast
4:55 PM 30.2 °F 23.4 °F 25.5 °F 83% 30.55 in 7.0 mi NNE 6.9 mph 17.3 mph N/A   Overcast
5:15 PM 30.2 °F 21.3 °F 24.8 °F 80% 30.56 in 10.0 mi NNE 10.4 mph 18.4 mph N/A   Overcast
5:35 PM 29.8 °F 20.9 °F 24.1 °F 79% 30.57 in 10.0 mi NNE 10.4 mph 19.6 mph N/A   Overcast
5:55 PM 29.1 °F 17.9 °F 22.8 °F 77% 30.59 in 10.0 mi North 15.0 mph 21.9 mph N/A   Overcast
6:15 PM 27.9 °F 17.8 °F 21.2 °F 76% 30.60 in 10.0 mi North 11.5 mph 25.3 mph N/A   Overcast
6:35 PM 27.5 °F 19.3 °F 21.2 °F 77% 30.60 in 10.0 mi North 8.1 mph 19.6 mph N/A   Overcast
6:55 PM 27.3 °F 17.1 °F 21.4 °F 78% 30.61 in 10.0 mi North 11.5 mph 18.4 mph N/A   Overcast
7:15 PM 26.6 °F 15.2 °F 21.2 °F 80% 30.61 in 10.0 mi North 13.8 mph 23.0 mph N/A   Overcast
7:35 PM 26.6 °F 16.2 °F 21.2 °F 80% 30.62 in 10.0 mi North 11.5 mph 17.3 mph N/A   Overcast
7:55 PM 26.4 °F 18.0 °F 21.9 °F 83% 30.64 in 5.0 mi North 8.1 mph 17.3 mph N/A   Overcast
8:15 PM 26.2 °F 16.4 °F 22.5 °F 86% 30.65 in 4.0 mi North 10.4 mph 20.7 mph N/A   Overcast
8:55 PM 25.7 °F 13.5 °F 22.3 °F 87% 30.67 in 5.0 mi North 15.0 mph 18.4 mph N/A   Overcast
9:15 PM 25.7 °F 17.1 °F 21.9 °F 86% 30.66 in 7.0 mi North 8.1 mph - N/A   Overcast
9:35 PM 25.2 °F 15.7 °F 20.3 °F 82% 30.67 in 10.0 mi North 9.2 mph - N/A   Overcast
9:55 PM 25.9 °F 15.3 °F 20.7 °F 81% 30.68 in 7.0 mi North 11.5 mph 17.3 mph N/A   Overcast
10:15 PM 25.3 °F 15.3 °F 19.4 °F 78% 30.68 in 10.0 mi North 10.4 mph 17.3 mph N/A   Overcast
10:35 PM 25.2 °F 16.5 °F 19.4 °F 79% 30.69 in 10.0 mi North 8.1 mph - N/A   Overcast
10:55 PM 24.6 °F 15.1 °F 18.9 °F 79% 30.69 in 10.0 mi North 9.2 mph 18.4 mph N/A   Overcast
11:15 PM 24.3 °F 13.3 °F 19.2 °F 81% 30.69 in 7.0 mi North 11.5 mph 17.3 mph N/A Snow Light Snow
11:35 PM 23.9 °F 14.2 °F 19.2 °F 82% 30.70 in 7.0 mi North 9.2 mph 17.3 mph N/A Snow Light Snow
11:55 PM 23.5 °F 13.0 °F 19.4 °F 84% 30.70 in 5.0 mi North 10.4 mph 17.3 mph N/A Snow Light Snow